When you browse on this site, cookies collect data to enhance your experience and personalize the content and advertising you see.
Visit our Privacy Policy to learn more. By continuing to use the site, you agree to this use of cookies and data.
  • în România
  • Lista ţărilor
  • Pe 7 zile
  • Temperatura apei
  • Meteo pe hartă
  • Widget-uri
  • user-avatar
    Intrare

    Meteo pe oră la Tomaszów Mazowiecki

    Astăzi, 6 Decembrie, Vineri

    Timp Temperatura Precipitaţii Vânt Presiune Umiditate
    00:00 -4°C° 0 mm 5 m/s 749 mmHg 70%
    01:00 -3°C° 0 mm 4 m/s 749 mmHg 73%
    02:00 -3°C° 0 mm 4 m/s 748 mmHg 73%
    03:00 -4°C° 0 mm 5 m/s 748 mmHg 73%
    04:00 -4°C° 0 mm 5 m/s 747 mmHg 72%
    05:00 -4°C° 0 mm 5 m/s 747 mmHg 71%
    06:00 -4°C° 0 mm 6 m/s 747 mmHg 70%
    07:00 -4°C° 0 mm 6 m/s 747 mmHg 69%
    08:00 -3°C° 0 mm 6 m/s 747 mmHg 66%
    09:00 -2°C° 0 mm 7 m/s 746 mmHg 62%
    10:00 -2°C° 0 mm 7 m/s 746 mmHg 58%
    11:00 -1°C° 0 mm 7 m/s 746 mmHg 55%
    12:00 0°C° 0 mm 7 m/s 746 mmHg 53%
    13:00 +2°C° 0 mm 6 m/s 745 mmHg 50%
    14:00 +1°C° 0 mm 6 m/s 745 mmHg 53%
    15:00 -1°C° 0 mm 6 m/s 745 mmHg 55%
    16:00 -2°C° 0 mm 6 m/s 744 mmHg 58%
    17:00 -2°C° 0 mm 6 m/s 744 mmHg 59%
    18:00 -2°C° 0 mm 6 m/s 744 mmHg 60%
    19:00 -3°C° 0 mm 6 m/s 744 mmHg 61%
    20:00 -3°C° 0 mm 6 m/s 744 mmHg 61%
    21:00 -3°C° 0 mm 6 m/s 743 mmHg 61%
    22:00 -3°C° 0 mm 6 m/s 743 mmHg 61%
    23:00 -3°C° 0 mm 6 m/s 743 mmHg 61%

    Mâine, 7 Decembrie, Sâmbătă

    Timp Temperatura Precipitaţii Vânt Presiune Umiditate
    00:00 -2°C° 0 mm 6 m/s 743 mmHg 61%
    01:00 -2°C° 0 mm 6 m/s 743 mmHg 61%
    02:00 -2°C° 0 mm 6 m/s 742 mmHg 61%
    03:00 -2°C° 0 mm 6 m/s 741 mmHg 62%
    04:00 -2°C° 0 mm 6 m/s 741 mmHg 62%
    05:00 -1°C° 0 mm 7 m/s 741 mmHg 63%
    06:00 -1°C° 0 mm 7 m/s 741 mmHg 63%
    07:00 0°C° 0 mm 7 m/s 740 mmHg 64%
    08:00 0°C° 0.1 mm 7 m/s 740 mmHg 70%
    09:00 0°C° 0.1 mm 8 m/s 740 mmHg 76%
    10:00 +1°C° 0.1 mm 8 m/s 740 mmHg 82%
    11:00 +2°C° 0 mm 8 m/s 740 mmHg 81%
    12:00 +2°C° 0 mm 8 m/s 740 mmHg 80%
    13:00 +4°C° 0 mm 8 m/s 740 mmHg 79%
    14:00 +4°C° 0.2 mm 8 m/s 740 mmHg 83%
    15:00 +4°C° 0.2 mm 8 m/s 740 mmHg 86%
    16:00 +4°C° 0.2 mm 8 m/s 740 mmHg 90%
    17:00 +4°C° 0.1 mm 7 m/s 740 mmHg 89%
    18:00 +4°C° 0.1 mm 7 m/s 740 mmHg 88%
    19:00 +4°C° 0.1 mm 7 m/s 741 mmHg 87%
    20:00 +4°C° 0.1 mm 7 m/s 741 mmHg 87%
    21:00 +4°C° 0.1 mm 7 m/s 741 mmHg 86%
    22:00 +4°C° 0.1 mm 8 m/s 741 mmHg 86%
    23:00 +4°C° 0.1 mm 8 m/s 741 mmHg 85%

    Poimâine, 8 Decembrie, Duminică

    Timp Temperatura Precipitaţii Vânt Presiune Umiditate
    00:00 +4°C° 0.1 mm 7 m/s 742 mmHg 85%
    01:00 +4°C° 0.1 mm 7 m/s 742 mmHg 85%
    02:00 +4°C° 0 mm 6 m/s 742 mmHg 87%
    03:00 +3°C° 0 mm 6 m/s 742 mmHg 88%
    04:00 +2°C° 0 mm 5 m/s 742 mmHg 89%
    05:00 +3°C° 0 mm 5 m/s 743 mmHg 89%
    06:00 +3°C° 0 mm 5 m/s 743 mmHg 89%
    07:00 +3°C° 0 mm 5 m/s 743 mmHg 89%
    08:00 +4°C° 0 mm 6 m/s 743 mmHg 86%
    09:00 +4°C° 0 mm 6 m/s 743 mmHg 83%
    10:00 +4°C° 0 mm 6 m/s 743 mmHg 80%
    11:00 +4°C° 0 mm 6 m/s 742 mmHg 77%
    12:00 +5°C° 0 mm 6 m/s 742 mmHg 74%
    13:00 +5°C° 0 mm 7 m/s 741 mmHg 71%
    14:00 +5°C° 0 mm 7 m/s 741 mmHg 72%
    15:00 +4°C° 0 mm 7 m/s 740 mmHg 73%
    16:00 +4°C° 0 mm 7 m/s 740 mmHg 74%
    17:00 +4°C° 0 mm 7 m/s 739 mmHg 73%
    18:00 +4°C° 0 mm 7 m/s 739 mmHg 73%
    19:00 +4°C° 0 mm 7 m/s 738 mmHg 72%
    20:00 +5°C° 0.1 mm 8 m/s 738 mmHg 74%
    21:00 +5°C° 0.1 mm 8 m/s 737 mmHg 77%
    22:00 +5°C° 0.1 mm 8 m/s 737 mmHg 79%
    23:00 +5°C° 0.3 mm 8 m/s 736 mmHg 81%

    9 Decembrie, Luni

    Timp Temperatura Precipitaţii Vânt Presiune Umiditate
    00:00 +5°C° 0.3 mm 8 m/s 736 mmHg 84%
    01:00 +5°C° 0.3 mm 8 m/s 736 mmHg 86%
    02:00 +5°C° 0.1 mm 8 m/s 736 mmHg 84%
    03:00 +5°C° 0.1 mm 8 m/s 735 mmHg 82%
    04:00 +5°C° 0.1 mm 7 m/s 735 mmHg 81%
    05:00 +5°C° 0.5 mm 7 m/s 735 mmHg 83%
    06:00 +5°C° 0.5 mm 6 m/s 735 mmHg 86%
    07:00 +6°C° 0.5 mm 5 m/s 735 mmHg 88%
    08:00 +5°C° 0.1 mm 6 m/s 735 mmHg 83%
    09:00 +5°C° 0.1 mm 6 m/s 735 mmHg 78%
    10:00 +7°C° 0.1 mm 6 m/s 736 mmHg 73%
    11:00 +7°C° 0 mm 5 m/s 735 mmHg 71%
    12:00 +7°C° 0 mm 5 m/s 735 mmHg 69%
    13:00 +7°C° 0 mm 5 m/s 735 mmHg 66%
    14:00 +6°C° 0 mm 4 m/s 735 mmHg 69%
    15:00 +7°C° 0 mm 3 m/s 735 mmHg 72%
    16:00 +5°C° 0 mm 3 m/s 734 mmHg 75%
    17:00 +5°C° 0 mm 3 m/s 735 mmHg 75%
    18:00 +5°C° 0 mm 3 m/s 735 mmHg 74%
    19:00 +4°C° 0 mm 4 m/s 735 mmHg 74%
    20:00 +4°C° 0 mm 4 m/s 735 mmHg 76%
    21:00 +4°C° 0 mm 4 m/s 734 mmHg 78%
    22:00 +3°C° 0 mm 3 m/s 734 mmHg 80%
    23:00 +3°C° 0 mm 3 m/s 734 mmHg 81%

    10 Decembrie, Marţi

    Timp Temperatura Precipitaţii Vânt Presiune Umiditate
    00:00 +3°C° 0 mm 3 m/s 734 mmHg 82%
    01:00 +3°C° 0 mm 3 m/s 734 mmHg 84%
    02:00 +3°C° 0 mm 3 m/s 734 mmHg 84%
    03:00 +3°C° 0 mm 4 m/s 734 mmHg 84%
    04:00 +3°C° 0 mm 4 m/s 734 mmHg 84%
    05:00 +3°C° 0.2 mm 3 m/s 735 mmHg 87%
    06:00 +3°C° 0.2 mm 3 m/s 735 mmHg 90%
    07:00 +4°C° 0.2 mm 2 m/s 735 mmHg 92%
    08:00 +3°C° 0.2 mm 3 m/s 736 mmHg 90%
    09:00 +3°C° 0.2 mm 4 m/s 737 mmHg 88%
    10:00 +2°C° 0.2 mm 5 m/s 737 mmHg 87%
    11:00 +2°C° 0.1 mm 5 m/s 738 mmHg 89%
    12:00 +2°C° 0.1 mm 6 m/s 738 mmHg 91%
    13:00 +2°C° 0.1 mm 7 m/s 738 mmHg 93%
    14:00 +2°C° 0.1 mm 7 m/s 739 mmHg 92%
    15:00 +2°C° 0.1 mm 7 m/s 740 mmHg 91%
    16:00 +2°C° 0.1 mm 7 m/s 741 mmHg 90%
    17:00 0°C° 0.1 mm 7 m/s 742 mmHg 90%
    18:00 0°C° 0.1 mm 7 m/s 743 mmHg 89%
    19:00 -1°C° 0.1 mm 7 m/s 744 mmHg 89%
    20:00 -1°C° 0 mm 6 m/s 745 mmHg 82%
    21:00 -1°C° 0 mm 5 m/s 746 mmHg 75%
    22:00 -2°C° 0 mm 4 m/s 747 mmHg 67%
    23:00 -2°C° 0 mm 4 m/s 747 mmHg 69%

    11 Decembrie, Miercuri

    Timp Temperatura Precipitaţii Vânt Presiune Umiditate
    00:00 -1°C° 0 mm 3 m/s 747 mmHg 71%
    01:00 -2°C° 0 mm 3 m/s 748 mmHg 74%
    02:00 -2°C° 0 mm 3 m/s 747 mmHg 74%
    03:00 -2°C° 0 mm 3 m/s 747 mmHg 75%
    04:00 -2°C° 0 mm 3 m/s 747 mmHg 76%
    05:00 -3°C° 0 mm 4 m/s 746 mmHg 72%
    06:00 -3°C° 0 mm 4 m/s 746 mmHg 69%
    07:00 -2°C° 0 mm 5 m/s 745 mmHg 66%
    08:00 -3°C° 0 mm 6 m/s 744 mmHg 60%
    09:00 -2°C° 0 mm 6 m/s 744 mmHg 54%
    10:00 -1°C° 0 mm 7 m/s 743 mmHg 48%
    11:00 -1°C° 0 mm 7 m/s 743 mmHg 45%
    12:00 0°C° 0 mm 7 m/s 742 mmHg 43%
    13:00 0°C° 0 mm 7 m/s 741 mmHg 40%
    14:00 0°C° 0 mm 7 m/s 741 mmHg 44%
    15:00 0°C° 0 mm 7 m/s 740 mmHg 48%
    16:00 0°C° 0 mm 7 m/s 740 mmHg 51%
    17:00 0°C° 0.3 mm 7 m/s 740 mmHg 63%
    18:00 0°C° 0.3 mm 7 m/s 740 mmHg 74%
    19:00 0°C° 0.3 mm 7 m/s 740 mmHg 85%
    20:00 0°C° 0 mm 7 m/s 740 mmHg 83%
    21:00 0°C° 0 mm 7 m/s 740 mmHg 80%
    22:00 +1°C° 0 mm 6 m/s 740 mmHg 78%
    23:00 +1°C° 0.2 mm 6 m/s 740 mmHg 81%
    Arată mai mult